TimeCDT,TemperatureF,Dew PointF,Humidity,Sea Level PressureIn,VisibilityMPH,Wind Direction,Wind SpeedMPH,Gust SpeedMPH,PrecipitationIn,Events,Conditions,WindDirDegrees,DateUTC
12:56 AM,68.0,46.0,45,29.96,-9999.0,NNW,8.1,-,N/A,,Unknown,340,2013-08-22 05:56:00
1:56 AM,59.0,46.0,62,29.99,-9999.0,Calm,Calm,-,N/A,,Unknown,0,2013-08-22 06:56:00
2:56 AM,60.1,46.0,60,29.99,-9999.0,Calm,Calm,-,N/A,,Unknown,0,2013-08-22 07:56:00
3:56 AM,59.0,46.0,62,30.00,-9999.0,Calm,Calm,-,N/A,,Unknown,0,2013-08-22 08:56:00
4:56 AM,66.0,46.0,48,30.02,-9999.0,NNW,8.1,17.3,N/A,,Unknown,330,2013-08-22 09:56:00
5:56 AM,64.9,46.9,52,30.04,-9999.0,NNW,9.2,17.3,N/A,,Unknown,340,2013-08-22 10:56:00
6:56 AM,64.9,48.0,54,30.06,-9999.0,NNW,6.9,-,N/A,,Unknown,340,2013-08-22 11:56:00
7:56 AM,68.0,48.9,50,30.08,-9999.0,Calm,Calm,-,N/A,,Unknown,0,2013-08-22 12:56:00
8:56 AM,72.0,50.0,46,30.09,-9999.0,NNW,3.5,-,N/A,,Unknown,340,2013-08-22 13:56:00
9:56 AM,71.1,48.9,45,30.09,-9999.0,Variable,3.5,-,N/A,,Unknown,0,2013-08-22 14:56:00
10:56 AM,60.1,48.9,67,30.10,-9999.0,WSW,8.1,-,N/A,,Unknown,240,2013-08-22 15:56:00
11:56 AM,63.0,51.1,65,30.11,-9999.0,WSW,5.8,-,N/A,,Unknown,250,2013-08-22 16:56:00
12:56 PM,64.9,50.0,58,30.10,-9999.0,WSW,6.9,-,N/A,,Unknown,250,2013-08-22 17:56:00
1:56 PM,61.0,46.9,60,30.11,-9999.0,WSW,5.8,-,N/A,,Unknown,250,2013-08-22 18:56:00
2:56 PM,64.0,51.1,63,30.11,-9999.0,Calm,Calm,-,N/A,,Unknown,0,2013-08-22 19:56:00
3:56 PM,60.1,51.1,72,30.12,-9999.0,WSW,3.5,-,N/A,,Unknown,240,2013-08-22 20:56:00
4:56 PM,60.1,50.0,69,30.12,-9999.0,WSW,3.5,-,N/A,,Unknown,250,2013-08-22 21:56:00
5:56 PM,60.1,50.0,69,30.12,-9999.0,Calm,Calm,-,N/A,,Unknown,0,2013-08-22 22:56:00
6:56 PM,57.9,48.9,72,30.11,-9999.0,Calm,Calm,-,N/A,,Unknown,0,2013-08-22 23:56:00
7:56 PM,59.0,48.9,69,30.11,-9999.0,Calm,Calm,-,N/A,,Unknown,0,2013-08-23 00:56:00
8:56 PM,55.0,48.0,77,30.13,-9999.0,Calm,Calm,-,N/A,,Unknown,0,2013-08-23 01:56:00
9:56 PM,57.0,48.9,74,30.13,-9999.0,Calm,Calm,-,N/A,,Unknown,0,2013-08-23 02:56:00
10:56 PM,55.9,48.0,75,30.14,-9999.0,Calm,Calm,-,N/A,,Unknown,0,2013-08-23 03:56:00
11:56 PM,55.0,48.0,77,30.15,-9999.0,Calm,Calm,-,N/A,,Unknown,0,2013-08-23 04:56:00